This demonstration page uses our WeatherBlox Daily Observations layout. Learn more.

39.01783, -85.05884

Hourly Observations for January 24, 2021

Temp ( °F °C ) Dew Point ( °F °C ) Humidity (%) Winds ( mph kmh ) Pressure ( in mb ) Visibility ( mi km ) Precip ( " mm )
12:52 am 00:52 Cloudy 27 -2.8 12 -11.1 53 53 E 8 13 30.29 1026 10 16.0934 0 0
1:52 am 01:52 Cloudy 28 -2.2 12 -11.1 51 51 SE 12 19 30.27 1025 10 16.0934 0 0
2:52 am 02:52 Cloudy 28 -2.2 12 -11.1 51 51 ESE 10 17 30.25 1025 10 16.0934 0 0
3:52 am 03:52 Cloudy 28 -2.2 12 -11.1 51 51 SE 12 19 30.23 1024 10 16.0934 0 0
4:52 am 04:52 Cloudy 29 -1.7 12 -11.1 49 49 ESE 13 20 30.2 1023 10 16.0934 0 0
5:52 am 05:52 Cloudy 29 -1.7 12 -11.1 49 49 SE 13 20 30.18 1022 10 16.0934 0 0
6:52 am 06:52 Cloudy 29 -1.7 12 -11.1 49 49 ESE 6 9 30.19 1022 10 16.0934 0 0
7:52 am 07:52 Mostly Cloudy 29 -1.7 13 -10.6 51 51 SE 9 15 30.19 1023 10 16.0934 0 0
8:52 am 08:52 Cloudy 30 -1.1 13 -10.6 49 49 SE 9 15 30.17 1022 10 16.0934 0 0
9:13 am 09:13 Cloudy with Light Snow 29 -1.7 15 -9.4 56 56 SE 14 22 30.2 1023 1 1.60934 0.001 0.001
9:18 am 09:18 Cloudy with Snow 28 -2.2 17 -8.3 63 63 SE 13 20 30.19 1023 0.5 0.80467 0.001 0.001
9:34 am 09:34 Cloudy with Light Snow 27 -2.8 20 -6.7 75 75 ESE 8 13 30.2 1023 1 1.60934 0.01 0.254
9:52 am 09:52 Cloudy with Light Snow 28 -2.2 21 -6.1 75 75 ESE 9 15 30.15 1021 1.5 2.41401 0.02 0.508
10:18 am 10:18 Cloudy with Light Rain 28 -2.2 22 -5.6 78 78 ESE 8 13 30.18 1022 6 9.65604 0.01 0.254
10:52 am 10:52 Cloudy with Light Freezing Rain 29 -1.7 23 -5 78 78 SSE 8 13 30.18 1022 8 12.87472 0.02 0.508
11:14 am 11:14 Cloudy with Light Wintry Mix 29 -1.7 24 -4.4 82 82 SE 6 9 30.19 1022 7 11.26538 0.001 0.001
11:52 am 11:52 Cloudy 30 -1.1 25 -3.9 82 82 S 3 6 30.15 1021 8 12.87472 0.001 0.001
12:14 pm 12:14 Cloudy with Light Freezing Drizzle 30 -1.1 25 -3.9 82 82 SSE 7 11 30.16 1021 8 12.87472 0.001 0.001
12:46 pm 12:46 Cloudy 30 -1 27 -3 86 86 SSE 10 17 30.13 1020 9 14.48406 0.001 0.001
12:52 pm 12:52 Cloudy 31 -0.6 26 -3.3 82 82 SSE 13 20 30.09 1019 9 14.48406 0.001 0.001
1:08 pm 13:08 Cloudy with Freezing Drizzle 31 -0.6 26 -3.3 82 82 SSE 13 20 30.1 1019 8 12.87472 0.001 0.001
1:17 pm 13:17 Cloudy 31 -0.6 26 -3.3 82 82 SSE 13 20 30.09 1019 10 16.0934 0.001 0.001
1:52 pm 13:52 Cloudy 32 0 28 -2.2 85 85 S 6 9 30.07 1018 10 16.0934 0.001 0.001
2:52 pm 14:52 Cloudy with Mist and Fog 32 0 29 -1.7 88 88 S 5 7 30.06 1018 2 3.21868 0 0
3:15 pm 15:15 Cloudy with Mist and Fog 32 0 30 -1.1 92 92 SSW 5 7 30.09 1019 1 1.60934 0 0
3:52 pm 15:52 Cloudy with Mist and Fog 32 0 31 -0.6 96 96 Calm 30.06 1018 1 1.60934 0 0
4:52 pm 16:52 Cloudy with Mist and Fog 33 0.6 31 -0.6 92 92 SSE 3 6 30.05 1018 1 1.60934 0 0
5:40 pm 17:40 Cloudy with Mist and Fog 33 0.6 32 0 96 96 Calm 30.08 1019 0.5 0.80467 0 0
5:52 pm 17:52 Cloudy with Mist and Fog 33 0.6 32 0 96 96 Calm 30.06 1018 0.5 0.80467 0 0
6:52 pm 18:52 Cloudy with Mist and Fog 33 0.6 32 0 96 96 Calm 30.08 1019 0.5 0.80467 0 0
7:15 pm 19:15 Cloudy with Fog 33 0.6 32 0 96 96 SW 3 6 30.1 1019 1 1.60934 0 0
7:52 pm 19:52 Mostly Cloudy with Fog 33 0.6 32 0 96 96 Calm 30.08 1019 1 1.60934 0 0
8:52 pm 20:52 Mostly Cloudy with Mist and Fog 33 0.6 32 0 96 96 Calm 30.07 1018 1 1.60934 0 0
9:52 pm 21:52 Mostly Cloudy with Fog 33 0.6 32 0 96 96 W 3 6 30.07 1018 1 1.60934 0 0
10:52 pm 22:52 Mostly Cloudy with Fog 33 0.6 32 0 96 96 Calm 30.08 1019 1 1.60934 0 0
11:07 pm 23:07 Mostly Cloudy with Fog 33 0.6 32 0 96 96 Calm 30.1 1019 1 1.60934 0 0
11:44 pm 23:44 Mostly Cloudy with Fog 33 0.6 31 -0.6 92 92 NNW 5 7 30.1 1019 1 1.60934 0 0
11:52 pm 23:52 Mostly Cloudy with Fog 33 0.6 31 -0.6 92 92 NNW 5 7 30.07 1018 1 1.60934 0 0

Powered by AerisWeather